This is the latest recevied weather packets stored in our database for station/object DL4MGC-10. If no packets are shown the sender has not sent any weather packets the latest 10 day(s).
| Time | Temp. | Humidity | Pressure | Rain* | Wind** | Luminosity | Snow |
|---|---|---|---|---|---|---|---|
| 1777918169 | 22.22° C | 51% | 1011.1 hPa | - | - | - | - |
| 1777917269 | 22.22° C | 52% | 1011.2 hPa | - | - | - | - |
| 1777916369 | 22.78° C | 51% | 1011.3 hPa | - | - | - | - |
| 1777915469 | 22.78° C | 50% | 1011.2 hPa | - | - | - | - |
| 1777914569 | 22.78° C | 50% | 1011.2 hPa | - | - | - | - |
| 1777913669 | 23.33° C | 48% | 1011.2 hPa | - | - | - | - |
| 1777912769 | 23.33° C | 50% | 1011.3 hPa | - | - | - | - |
| 1777911868 | 24.44° C | 48% | 1011.3 hPa | - | - | - | - |
| 1777910968 | 24.44° C | 45% | 1011.3 hPa | - | - | - | - |
| 1777910068 | 24.44° C | 46% | 1011.3 hPa | - | - | - | - |
| 1777909168 | 24.44° C | 45% | 1011.4 hPa | - | - | - | - |
| 1777908268 | 24.44° C | 45% | 1011.5 hPa | - | - | - | - |
| 1777907368 | 25° C | 45% | 1011.5 hPa | - | - | - | - |
| 1777906468 | 26.11° C | 43% | 1011.6 hPa | - | - | - | - |
| 1777905568 | 25° C | 42% | 1011.6 hPa | - | - | - | - |
| 1777904668 | 25.56° C | 41% | 1011.7 hPa | - | - | - | - |
| 1777903768 | 25.56° C | 45% | 1011.8 hPa | - | - | - | - |
| 1777902867 | 25° C | 44% | 1011.8 hPa | - | - | - | - |
| 1777901967 | 25° C | 44% | 1012.3 hPa | - | - | - | - |
| 1777901067 | 24.44° C | 45% | 1012.3 hPa | - | - | - | - |
| 1777900167 | 23.89° C | 46% | 1012.4 hPa | - | - | - | - |
| 1777899267 | 23.33° C | 44% | 1012.5 hPa | - | - | - | - |
| 1777898367 | 24.44° C | 43% | 1012.5 hPa | - | - | - | - |
| 1777897467 | 23.33° C | 44% | 1012.6 hPa | - | - | - | - |
| 1777896567 | 25° C | 44% | 1012.7 hPa | - | - | - | - |
* Rain since midnight (hover to see other rain measurements)
** Current wind speed in m/s (hover to see current wind gust speed)